Theta_e
311 311 311 312 312 312 313 315 316 316 315 314 313 312 311 312 313 316 323 330 330 328 329 339 342 342 341 342 341 344 360 363 358 356 361 354 353 351 351 351 345 344 351 351 350
311 311 311 311 312 312 313 314 315 316 315 314 314 311 311 311 317 323 328 328 326 325 328 336 341 339 339 339 343 347 358 358 352 352 354 354 353 353 349 350 346 348 349 350 350
312 312 311 312 312 313 313 313 314 315 316 314 315 313 313 315 327 330 330 328 325 324 330 337 336 333 336 337 343 346 359 352 352 351 351 353 351 349 355 357 349 349 347 351 349
312 312 312 313 314 315 314 315 315 315 316 315 315 315 316 326 336 329 326 324 323 325 331 335 333 333 336 341 344 356 347 349 352 351 351 353 351 354 354 354 349 345 345 348 349
311 311 313 315 317 319 318 318 317 316 316 316 315 316 320 329 329 327 323 322 323 327 334 333 333 334 334 340 346 351 354 352 351 351 352 351 355 356 352 345 346 345 344 344 346
311 311 314 315 318 321 322 322 321 318 316 316 315 316 325 329 331 329 324 323 326 329 334 332 332 333 334 337 349 342 346 351 349 351 351 353 355 355 351 345 347 345 344 343 345
311 311 314 316 318 321 323 323 323 319 317 316 317 320 326 329 328 331 330 328 327 332 332 331 331 333 335 339 345 346 352 351 341 347 352 351 355 351 351 348 346 345 345 343 342
311 312 314 316 317 320 322 321 322 318 317 315 319 325 325 325 328 328 331 331 329 330 329 329 329 331 333 335 340 346 349 359 347 353 352 352 358 354 351 348 348 346 345 344 343
311 313 315 316 317 319 319 318 318 317 316 316 321 328 327 324 326 327 330 330 329 329 329 329 329 332 334 338 340 346 352 353 357 346 353 352 358 353 351 346 348 348 345 345 345
312 313 314 315 317 318 318 319 316 315 316 323 326 332 329 328 325 324 329 328 328 329 329 330 330 332 335 338 342 344 343 343 356 356 349 354 355 356 352 349 349 349 348 347 346
312 313 314 315 316 318 320 328 329 330 328 328 329 327 329 327 326 324 329 329 329 329 330 330 330 332 333 336 337 338 337 337 341 346 346 349 353 353 354 352 351 350 349 345 347
313 313 314 315 316 318 319 326 327 328 330 332 327 331 328 326 324 325 329 329 328 329 329 329 331 331 331 332 333 334 336 337 338 340 342 344 346 351 356 355 350 352 348 344 345
313 314 314 315 316 318 325 326 328 325 326 326 329 328 330 328 328 328 329 329 329 330 330 329 329 330 331 330 332 332 334 336 338 335 334 342 345 350 344 354 350 349 349 346 348
314 314 315 316 320 330 331 329 326 326 329 329 327 328 328 329 329 329 328 329 330 331 333 332 330 329 330 330 330 331 334 335 335 334 335 343 345 351 347 343 348 350 348 348 346
314 315 316 316 320 330 331 327 326 326 335 329 328 327 327 329 329 328 330 331 330 332 332 332 332 330 329 328 329 330 332 333 334 335 336 342 346 350 351 353 348 352 349 348 346
314 316 319 318 318 324 330 327 327 331 334 329 329 329 326 329 329 330 330 332 331 330 332 333 331 330 329 328 329 329 332 333 333 336 340 338 344 347 349 342 346 350 351 350 347
316 322 322 324 331 328 329 329 333 333 331 331 331 331 328 328 328 329 330 331 331 333 334 331 331 329 328 327 327 328 332 334 336 341 343 339 347 344 345 345 345 347 349 351 350
318 324 327 324 328 328 331 332 335 334 332 329 329 329 331 331 329 328 331 332 331 331 332 330 329 329 327 327 325 327 330 334 338 340 337 342 348 345 343 340 339 341 343 348 350
321 327 329 331 328 329 334 336 335 333 331 330 330 330 329 329 331 329 329 330 331 332 333 331 329 330 329 327 327 326 330 330 331 332 333 332 338 337 338 339 341 341 342 342 346
323 332 332 329 330 331 335 334 334 331 330 330 332 332 331 330 330 329 330 331 331 331 332 331 330 330 329 327 326 325 329 332 332 336 333 332 338 345 346 345 342 343 343 343 345
327 337 332 329 329 333 336 334 333 332 330 332 332 332 333 331 331 332 331 331 332 332 331 331 331 330 330 329 327 325 327 329 331 332 335 334 340 343 343 341 341 343 345 345 344
334 338 332 330 334 335 335 335 325 334 331 332 333 332 333 333 334 333 332 332 331 332 332 331 331 332 331 330 330 328 327 328 333 334 332 334 335 339 341 341 344 347 341 339 343
334 332 329 330 338 338 335 334 332 332 332 333 333 334 334 334 335 335 334 333 332 331 332 332 332 333 333 331 331 331 329 327 329 330 337 333 338 339 339 337 342 349 344 348 342
331 334 334 331 331 331 333 333 333 332 332 330 331 332 333 335 334 335 335 334 333 332 339 329 330 332 333 334 333 335 333 328 327 331 332 331 334 338 337 336 343 348 347 345 350
327 328 324 331 330 328 326 326 329 330 330 332 333 333 332 335 335 336 335 335 336 338 335 331 332 332 332 330 331 332 334 332 329 329 332 332 334 340 339 338 344 347 348 349 353
326 326 324 325 326 325 323 325 327 328 328 329 329 326 328 333 333 335 333 333 335 337 338 337 340 339 334 331 331 331 331 332 332 329 329 330 332 337 337 346 343 346 349 353 354
321 322 327 325 326 324 326 326 326 323 323 324 324 326 326 327 326 325 326 329 331 334 337 338 339 341 343 337 335 334 332 332 333 332 329 331 333 341 340 342 349 354 351 353 354
Wind_Speed
11 11 12 12 13 13 13 12 11 11 9 8 8 8 8 10 11 11 11 7 16 7 9 10 13 14 16 14 6 5 5 4 2 7 3 6 8 6 1 7 6 5 17 21 22
12 11 12 12 13 13 13 12 12 11 10 7 6 7 7 10 12 19 18 13 8 8 9 15 14 11 10 13 0 2 4 12 11 6 2 5 6 5 4 4 5 14 21 25 22
13 13 13 13 14 13 12 12 12 11 10 7 5 5 6 7 10 18 24 19 13 12 16 19 15 11 15 8 6 12 3 15 8 8 5 7 4 7 5 5 13 15 12 25 20
13 14 14 14 14 14 12 12 12 10 9 6 5 5 5 3 2 5 17 15 11 12 12 19 11 14 13 9 4 9 9 25 6 5 4 3 8 14 10 4 19 12 13 20 16
15 15 15 15 15 14 13 13 12 10 8 6 4 4 4 8 17 5 12 14 12 12 15 15 13 13 13 10 9 11 8 13 6 1 5 7 6 9 6 5 17 12 9 11 13
16 17 16 16 16 15 15 14 13 10 8 5 5 5 5 14 8 7 11 13 14 16 16 15 12 10 9 12 5 5 6 8 13 4 6 5 9 10 14 20 19 11 11 11 15
16 17 18 17 17 16 16 16 14 10 7 6 7 4 11 16 2 10 12 15 17 17 16 19 12 12 15 7 3 11 13 16 5 10 4 6 5 5 12 16 8 13 9 9 11
17 18 18 17 18 17 19 15 9 7 6 6 7 5 8 14 24 11 12 16 16 17 19 17 12 11 14 15 8 14 14 6 8 9 5 12 3 9 12 9 9 11 10 10 13
16 18 17 18 18 17 14 5 4 4 5 6 5 10 17 12 16 14 16 17 18 18 14 13 9 14 17 16 7 2 4 1 8 6 7 10 2 10 15 15 15 13 3 8 9
17 18 18 18 16 15 7 5 2 6 5 5 16 9 16 15 18 22 19 16 12 12 13 11 12 13 14 13 10 6 13 15 11 11 9 9 6 14 16 18 15 9 12 11 11
19 19 19 18 15 12 8 5 5 6 15 13 13 12 6 18 13 19 21 17 11 11 14 15 12 14 18 17 20 9 9 13 8 10 4 9 14 18 18 14 14 14 18 12 18
20 21 20 18 15 12 8 7 11 12 11 26 22 20 18 2 9 16 21 15 16 17 14 14 17 16 18 18 17 9 14 16 1 4 7 11 13 8 18 18 17 18 16 18 15
22 23 21 17 16 11 14 17 13 11 8 16 24 22 16 9 13 17 18 18 16 17 16 17 17 18 18 15 18 10 14 16 4 7 7 5 13 5 13 12 18 17 19 20 13
24 25 20 14 9 8 14 13 10 9 6 13 17 18 19 14 17 18 25 17 17 20 17 14 17 18 9 12 17 14 13 9 9 12 14 10 10 7 4 17 18 21 21 19 13
28 26 18 10 13 7 6 2 5 7 5 10 11 1 11 19 2 18 25 16 21 18 14 16 16 15 16 20 12 15 15 2 14 14 17 13 9 8 17 14 32 25 23 19 20
28 22 7 4 10 16 6 4 7 6 9 9 10 10 13 20 18 8 15 16 13 19 19 19 15 15 15 14 14 18 16 9 16 14 13 14 11 11 7 5 15 14 23 22 20
24 8 6 8 6 5 9 7 6 8 2 8 9 12 14 16 18 16 16 17 14 15 16 18 20 18 13 12 17 16 13 10 12 11 12 4 11 4 15 15 18 17 20 23 20
15 7 7 11 7 5 7 8 8 12 11 6 3 10 11 15 18 20 16 15 20 20 17 14 13 23 17 19 15 17 18 12 16 8 7 18 10 11 14 15 8 5 6 17 20
9 9 7 5 8 8 7 10 10 7 11 12 12 9 13 15 15 17 23 17 17 20 19 18 19 14 19 15 15 19 15 16 22 21 15 12 5 8 8 6 11 8 8 6 16
7 13 4 2 8 10 7 14 15 6 9 9 15 16 13 14 13 16 18 20 18 18 19 18 17 18 4 8 16 17 17 14 11 14 13 11 4 7 10 11 7 10 9 6 9
6 6 8 7 9 6 8 13 10 7 5 9 13 15 15 14 18 15 18 16 18 16 17 19 16 17 17 13 14 13 16 18 17 11 12 11 1 6 8 11 15 12 5 11 9
10 4 8 10 7 8 11 6 4 8 12 6 8 14 13 16 17 19 17 16 13 17 15 16 16 16 20 21 11 14 18 19 13 14 13 13 13 14 12 13 11 21 18 19 10
5 3 6 9 8 9 8 4 9 8 11 9 8 12 13 14 15 15 18 18 22 11 6 11 9 11 16 17 19 16 16 20 17 17 17 12 4 8 12 4 6 24 20 7 5
5 3 5 6 8 10 11 11 10 2 3 9 13 11 15 15 14 17 16 18 20 17 7 4 12 17 16 16 17 1 19 17 22 15 16 15 8 11 11 11 11 11 13 10 8
3 6 6 5 7 9 11 13 11 13 11 3 6 12 14 14 16 16 18 15 17 17 13 9 19 20 24 28 27 20 17 24 20 20 19 16 10 10 6 7 8 10 13 12 12
6 5 11 11 9 9 11 10 10 10 14 13 15 17 18 16 11 19 20 18 15 19 15 11 11 17 26 26 28 28 21 23 23 20 22 22 18 13 16 7 13 21 16 13 14
15 12 7 10 7 10 6 10 11 12 10 9 12 11 13 15 18 18 17 19 20 18 18 16 13 12 18 19 22 25 27 23 21 20 21 18 15 14 7 6 13 12 16 15 15
Wind_Direction
356 351 348 345 340 338 334 331 329 329 315 301 294 293 293 292 289 271 251 234 212 243 225 259 229 253 254 258 203 223 112 229 309 4 148 166 182 180 357 256 50 47 96 127 128
353 350 348 345 341 336 331 329 329 331 325 304 294 294 293 300 290 261 242 234 238 243 220 235 229 224 259 250 232 22 62 281 11 43 35 196 207 165 193 197 128 97 108 125 134
352 348 346 343 339 333 329 328 326 326 326 308 292 288 292 316 275 239 216 221 240 234 234 262 283 273 263 258 42 285 33 344 17 40 338 148 200 167 43 23 308 123 138 138 149
351 347 343 342 336 332 325 322 319 320 320 303 279 279 289 279 282 88 175 194 222 220 240 269 259 264 272 333 284 75 19 278 0 89 48 124 128 75 86 197 274 128 147 136 156
350 345 341 336 332 328 322 318 313 308 311 293 266 274 295 233 251 178 186 194 203 210 236 259 265 280 309 244 34 65 244 235 95 156 126 178 80 126 137 191 272 129 154 173 154
346 342 338 333 329 325 319 314 308 300 294 263 236 254 254 252 106 145 172 186 205 213 239 254 272 340 297 304 54 171 233 333 25 95 144 143 139 120 194 214 241 154 174 174 155
344 341 337 333 328 323 319 310 299 285 273 239 222 236 260 241 225 168 194 203 210 213 241 245 269 296 292 288 342 204 224 88 1 300 191 141 201 240 158 182 161 165 187 148 141
341 341 338 333 330 326 320 307 288 271 248 217 216 232 257 241 233 231 215 208 219 233 247 281 322 280 282 281 261 243 239 113 235 225 181 203 263 201 172 174 184 187 158 203 145
342 340 336 332 331 330 328 323 275 249 211 203 212 221 259 209 209 221 223 213 211 228 239 261 284 273 270 257 269 12 251 290 157 250 168 200 199 210 182 200 203 203 204 165 161
341 336 333 330 328 329 323 306 178 142 173 232 264 264 246 225 212 216 218 222 212 226 230 231 245 252 249 256 243 235 258 217 146 195 210 201 231 180 191 206 215 145 232 175 173
338 334 329 325 321 318 294 276 208 199 215 221 192 220 129 215 192 198 201 214 222 223 229 230 240 241 250 254 283 284 315 287 131 158 225 255 222 196 181 204 201 203 206 200 188
336 331 325 320 311 303 260 250 341 328 292 223 251 228 266 177 174 196 193 207 217 231 220 242 239 245 264 276 282 319 285 280 38 161 229 260 263 213 178 193 197 203 202 210 208
334 327 322 314 305 278 229 253 317 313 279 265 214 229 236 217 223 200 203 206 225 230 244 247 254 235 237 261 268 260 268 282 317 312 287 269 275 71 314 190 188 206 218 208 203
332 324 317 308 301 259 227 257 255 293 279 248 204 210 215 208 241 243 189 212 224 246 241 250 259 264 251 256 270 265 281 313 321 293 286 208 275 137 76 309 280 190 209 218 199
330 321 311 269 303 259 20 278 295 261 280 108 146 151 205 199 308 205 184 204 240 229 238 259 259 247 256 265 260 264 275 261 290 276 276 241 241 161 156 185 248 189 197 201 205
329 320 306 236 241 250 312 271 250 235 248 157 144 197 213 206 227 217 208 203 232 248 265 267 265 272 252 263 249 272 258 300 272 259 263 291 248 144 174 196 221 202 189 192 209
328 307 256 257 319 221 240 242 222 248 105 180 185 188 206 208 218 235 187 214 222 233 248 256 251 248 259 262 270 229 253 251 256 239 259 57 4 221 202 212 217 195 191 184 190
321 268 275 227 278 260 231 221 248 269 245 102 349 290 221 213 204 224 207 230 227 242 263 257 236 213 218 222 250 235 233 249 263 303 289 153 214 133 197 173 157 146 181 178 185
301 257 232 192 213 220 227 222 238 290 4 7 332 264 261 232 255 197 229 230 234 220 244 273 275 311 202 209 215 253 233 258 273 279 278 273 190 190 112 70 145 170 171 172 177
307 263 108 157 182 209 236 251 285 344 349 323 299 295 306 281 202 229 220 224 236 241 228 246 268 276 243 189 219 237 260 240 238 272 280 274 61 83 34 2 282 165 175 171 166
259 240 112 138 174 228 241 247 256 48 43 309 301 297 308 296 310 292 229 249 250 234 235 242 249 263 277 213 226 214 239 258 271 274 292 292 117 133 143 99 306 223 101 149 164
295 292 126 165 223 218 244 287 336 306 294 286 276 282 287 296 301 300 301 299 27 318 282 243 246 243 254 266 238 234 237 226 246 256 257 284 311 152 185 191 202 114 137 276 149
283 349 146 216 265 290 246 283 287 298 298 308 300 307 316 298 294 292 287 299 305 308 1 351 293 276 260 255 253 227 225 250 236 241 263 271 205 167 204 188 181 135 191 127 166
279 283 155 203 261 285 323 319 297 126 274 296 291 311 298 288 277 275 275 279 286 311 86 308 277 271 278 278 273 294 279 224 247 242 244 255 227 175 196 215 154 128 123 139 167
298 26 8 307 31 342 315 314 305 292 309 297 292 295 296 303 303 302 302 326 314 318 325 248 262 268 274 280 287 283 222 263 234 258 262 259 232 171 342 305 141 138 145 159 158
349 352 343 298 298 285 272 258 295 350 354 326 318 312 320 318 294 302 313 310 314 300 299 296 307 298 255 263 273 279 262 264 265 227 244 255 258 146 192 179 135 208 158 170 153
6 345 298 292 288 313 21 340 328 320 304 296 320 318 304 302 336 325 308 298 294 290 284 292 294 294 288 287 277 262 259 258 244 262 231 246 255 109 109 133 167 170 167 166 160